カタログに戻る

STARLINK-36954

運用中通信VLEO
NORAD 68057·PAYLOAD·🇺🇸 United States

打ち上げ Mar 2, 2026 から Vandenberg Space Force Base

Loading…

次のパス (今後24時間)

TLE

最新Source: CelesTrak SupGP

元期: Sep 15, 2026, 03:40 UTC

1 68057C 26041T   26258.15326389 -.00041687  00000+0 -12316-2 0  2589
2 68057  53.1573 244.7564 0001301  89.6317  51.5446 15.34412729    17

AllMySatでSTARLINK-36954をリアルタイム追跡

Download on the App Store